Location: Arbon
(43.0005°N, 0.7472°E)
Time: 22:06:12
(UTC+00:00)

Courier 1B Rocket - Pass Details

Date: 04 December 2020
Orbit: 920 x 1202 km, 28.2° (Epoch: 22 January)

Event Time Altitude Azimuth Distance (km) Brightness Sun altitude
Rises 04:22:33 0° 236° (SW) 4,023 - -30.2°
Reaches altitude 10° 04:25:53 10° 224° (SW) 3,091 - -29.6°
Exits shadow 04:29:12 21° 201° (SSW) 2,400 6.8 -29.0°
Maximum altitude 04:31:54 25° 172° (S) 2,195 6.9 -28.5°
Drops below altitude 10° 04:37:59 10° 121° (ESE) 3,127 8.4 -27.4°
Sets 04:41:22 0° 109° (ESE) 4,079 9.5 -26.8°
